Time,TemperatureF,DewpointF,PressureIn,WindDirection,WindDirectionDegrees,WindSpeedMPH,WindSpeedGustMPH,Humidity,HourlyPrecipIn,Conditions,Clouds,dailyrainin,SoftwareType,DateUTC
2013-07-17 00:01:00,70.0,51.0,29.73,NNE,25,2.0,-999.0,51,-99.99,,,-99.99,,2013-07-17 06:01:00,
2013-07-17 00:11:00,70.0,52.0,29.74,East,95,6.0,-999.0,53,-99.99,,,-99.99,,2013-07-17 06:11:00,
2013-07-17 00:22:00,70.0,52.0,29.74,East,95,6.0,-999.0,53,-99.99,,,-99.99,,2013-07-17 06:22:00,
2013-07-17 00:32:00,68.0,51.0,29.75,ESE,103,11.0,-999.0,55,-99.99,,,-99.99,,2013-07-17 06:32:00,
2013-07-17 00:43:00,66.0,53.0,29.76,ESE,119,9.0,-999.0,63,-99.99,,,-99.99,,2013-07-17 06:43:00,
2013-07-17 00:52:00,66.0,53.0,29.76,ESE,119,9.0,-999.0,63,-99.99,,,-99.99,,2013-07-17 06:52:00,
2013-07-17 01:01:00,65.0,53.0,29.77,East,84,5.0,-999.0,66,-99.99,,,-99.99,,2013-07-17 07:01:00,
2013-07-17 01:11:00,65.0,53.0,29.77,ESE,117,1.0,-999.0,66,-99.99,,,-99.99,,2013-07-17 07:11:00,
2013-07-17 01:22:00,65.0,53.0,29.77,ESE,117,1.0,-999.0,66,-99.99,,,-99.99,,2013-07-17 07:22:00,
2013-07-17 01:32:00,65.0,53.0,29.77,ENE,66,1.0,-999.0,65,-99.99,,,-99.99,,2013-07-17 07:32:00,
2013-07-17 01:42:00,65.0,53.0,29.78,North,4,4.0,-999.0,65,-99.99,,,-99.99,,2013-07-17 07:42:00,
2013-07-17 01:52:00,65.0,53.0,29.78,North,4,4.0,-999.0,65,-99.99,,,-99.99,,2013-07-17 07:52:00,
2013-07-17 02:01:00,65.0,53.0,29.78,East,79,4.0,-999.0,65,-99.99,,,-99.99,,2013-07-17 08:01:00,
2013-07-17 02:11:00,65.0,53.0,29.77,ENE,72,2.0,-999.0,66,-99.99,,,-99.99,,2013-07-17 08:11:00,
2013-07-17 02:22:00,65.0,53.0,29.77,ENE,72,2.0,-999.0,66,-99.99,,,-99.99,,2013-07-17 08:22:00,
2013-07-17 02:32:00,66.0,53.0,29.76,ENE,77,3.0,-999.0,63,-99.99,,,-99.99,,2013-07-17 08:32:00,
2013-07-17 02:43:00,66.0,53.0,29.76,ENE,58,3.0,-999.0,62,-99.99,,,-99.99,,2013-07-17 08:43:00,
2013-07-17 02:53:00,66.0,53.0,29.76,ENE,58,3.0,-999.0,62,-99.99,,,-99.99,,2013-07-17 08:53:00,
2013-07-17 03:02:00,65.0,53.0,29.75,East,86,1.0,-999.0,65,-99.99,,,-99.99,,2013-07-17 09:02:00,
2013-07-17 03:12:00,64.0,54.0,29.76,NE,39,4.0,-999.0,71,-99.99,,,-99.99,,2013-07-17 09:12:00,
2013-07-17 03:22:00,64.0,54.0,29.76,NE,39,4.0,-999.0,71,-99.99,,,-99.99,,2013-07-17 09:22:00,
2013-07-17 03:32:00,63.0,55.0,29.78,NE,39,3.0,-999.0,74,-99.99,,,-99.99,,2013-07-17 09:32:00,
2013-07-17 03:43:00,63.0,55.0,29.78,NE,40,2.0,-999.0,74,-99.99,,,-99.99,,2013-07-17 09:43:00,
2013-07-17 03:52:00,63.0,55.0,29.78,NE,40,2.0,-999.0,74,-99.99,,,-99.99,,2013-07-17 09:52:00,
2013-07-17 04:01:00,63.0,55.0,29.78,North,11,4.0,-999.0,75,-99.99,,,-99.99,,2013-07-17 10:01:00,
2013-07-17 04:11:00,62.0,54.0,29.78,NNE,14,2.0,-999.0,75,-99.99,,,-99.99,,2013-07-17 10:11:00,
2013-07-17 04:22:00,62.0,54.0,29.78,NNE,14,2.0,-999.0,75,-99.99,,,-99.99,,2013-07-17 10:22:00,
2013-07-17 04:32:00,62.0,55.0,29.78,NNE,14,1.0,-999.0,77,-99.99,,,-99.99,,2013-07-17 10:32:00,
2013-07-17 04:43:00,62.0,55.0,29.79,NNE,14,1.0,-999.0,78,-99.99,,,-99.99,,2013-07-17 10:43:00,
2013-07-17 04:52:00,62.0,55.0,29.79,NNE,14,1.0,-999.0,78,-99.99,,,-99.99,,2013-07-17 10:52:00,
2013-07-17 05:01:00,61.0,54.0,29.80,NNE,14,3.0,-999.0,78,-99.99,,,-99.99,,2013-07-17 11:01:00,
2013-07-17 05:11:00,62.0,55.0,29.80,NNE,14,1.0,-999.0,77,-99.99,,,-99.99,,2013-07-17 11:11:00,
2013-07-17 05:22:00,62.0,55.0,29.80,NNE,14,1.0,-999.0,77,-99.99,,,-99.99,,2013-07-17 11:22:00,
2013-07-17 05:32:00,62.0,54.0,29.81,NNE,14,1.0,-999.0,76,-99.99,,,-99.99,,2013-07-17 11:32:00,
2013-07-17 05:42:00,62.0,54.0,29.81,NNE,14,0.0,-999.0,76,-99.99,,,-99.99,,2013-07-17 11:42:00,
2013-07-17 05:52:00,62.0,54.0,29.81,NNE,14,0.0,-999.0,76,-99.99,,,-99.99,,2013-07-17 11:52:00,
2013-07-17 06:01:00,62.0,53.0,29.81,NNE,14,0.0,-999.0,73,-99.99,,,-99.99,,2013-07-17 12:01:00,
2013-07-17 06:12:00,63.0,53.0,29.81,NNE,14,2.0,-999.0,70,-99.99,,,-99.99,,2013-07-17 12:12:00,
2013-07-17 06:22:00,63.0,53.0,29.81,NNE,14,2.0,-999.0,70,-99.99,,,-99.99,,2013-07-17 12:22:00,
2013-07-17 06:32:00,63.0,52.0,29.80,NNE,14,0.0,-999.0,68,-99.99,,,-99.99,,2013-07-17 12:32:00,
2013-07-17 06:42:00,63.0,53.0,29.80,NNE,14,1.0,-999.0,69,-99.99,,,-99.99,,2013-07-17 12:42:00,
2013-07-17 06:53:00,63.0,53.0,29.80,NNE,14,1.0,-999.0,69,-99.99,,,-99.99,,2013-07-17 12:53:00,
2013-07-17 07:01:00,63.0,52.0,29.82,NNE,14,2.0,-999.0,68,-99.99,,,-99.99,,2013-07-17 13:01:00,
2013-07-17 07:12:00,64.0,52.0,29.83,NNE,15,2.0,-999.0,64,-99.99,,,-99.99,,2013-07-17 13:12:00,
2013-07-17 07:22:00,64.0,52.0,29.83,NNE,15,2.0,-999.0,64,-99.99,,,-99.99,,2013-07-17 13:22:00,
2013-07-17 07:32:00,65.0,51.0,29.83,NNE,24,3.0,-999.0,61,-99.99,,,-99.99,,2013-07-17 13:32:00,
2013-07-17 07:43:00,66.0,51.0,29.82,ENE,58,4.0,-999.0,59,-99.99,,,-99.99,,2013-07-17 13:43:00,
2013-07-17 07:52:00,66.0,51.0,29.82,ENE,58,4.0,-999.0,59,-99.99,,,-99.99,,2013-07-17 13:52:00,
2013-07-17 08:02:00,66.0,49.0,29.83,ESE,103,1.0,-999.0,54,-99.99,,,-99.99,,2013-07-17 14:02:00,
2013-07-17 08:11:00,68.0,49.0,29.83,East,79,1.0,-999.0,51,-99.99,,,-99.99,,2013-07-17 14:11:00,
2013-07-17 08:22:00,68.0,49.0,29.83,East,79,1.0,-999.0,51,-99.99,,,-99.99,,2013-07-17 14:22:00,
2013-07-17 08:32:00,69.0,49.0,29.83,ENE,69,4.0,-999.0,49,-99.99,,,-99.99,,2013-07-17 14:32:00,
2013-07-17 08:43:00,69.0,49.0,29.83,ENE,72,5.0,-999.0,49,-99.99,,,-99.99,,2013-07-17 14:43:00,
2013-07-17 08:52:00,69.0,49.0,29.83,ENE,72,5.0,-999.0,49,-99.99,,,-99.99,,2013-07-17 14:52:00,
2013-07-17 09:01:00,69.0,47.0,29.84,ESE,105,5.0,-999.0,46,-99.99,,,-99.99,,2013-07-17 15:01:00,
2013-07-17 09:12:00,70.0,48.0,29.83,ENE,76,5.0,-999.0,45,-99.99,,,-99.99,,2013-07-17 15:12:00,
2013-07-17 09:22:00,70.0,48.0,29.83,ENE,76,5.0,-999.0,45,-99.99,,,-99.99,,2013-07-17 15:22:00,
2013-07-17 09:32:00,71.0,49.0,29.83,ENE,76,3.0,-999.0,45,-99.99,,,-99.99,,2013-07-17 15:32:00,
2013-07-17 09:42:00,70.0,48.0,29.83,East,79,3.0,-999.0,45,-99.99,,,-99.99,,2013-07-17 15:42:00,
2013-07-17 09:52:00,70.0,48.0,29.83,East,79,3.0,-999.0,45,-99.99,,,-99.99,,2013-07-17 15:52:00,
2013-07-17 10:02:00,70.0,48.0,29.85,East,84,4.0,-999.0,45,-99.99,,,-99.99,,2013-07-17 16:02:00,
2013-07-17 10:11:00,72.0,48.0,29.85,ENE,71,5.0,-999.0,43,-99.99,,,-99.99,,2013-07-17 16:11:00,
2013-07-17 10:21:00,72.0,48.0,29.85,ENE,71,5.0,-999.0,43,-99.99,,,-99.99,,2013-07-17 16:21:00,
2013-07-17 10:33:00,72.0,48.0,29.83,East,100,6.0,-999.0,43,-99.99,,,-99.99,,2013-07-17 16:33:00,
2013-07-17 10:42:00,74.0,49.0,29.83,East,89,6.0,-999.0,41,-99.99,,,-99.99,,2013-07-17 16:42:00,
2013-07-17 10:52:00,74.0,49.0,29.83,East,89,6.0,-999.0,41,-99.99,,,-99.99,,2013-07-17 16:52:00,
2013-07-17 11:01:00,74.0,47.0,29.83,East,95,5.0,-999.0,39,-99.99,,,-99.99,,2013-07-17 17:01:00,
2013-07-17 11:11:00,75.0,48.0,29.83,ESE,118,5.0,-999.0,39,-99.99,,,-99.99,,2013-07-17 17:11:00,
2013-07-17 11:21:00,75.0,48.0,29.83,ESE,118,5.0,-999.0,39,-99.99,,,-99.99,,2013-07-17 17:21:00,
2013-07-17 11:32:00,75.0,46.0,29.83,East,101,4.0,-999.0,36,-99.99,,,-99.99,,2013-07-17 17:32:00,
2013-07-17 11:43:00,76.0,47.0,29.81,SE,129,3.0,-999.0,36,-99.99,,,-99.99,,2013-07-17 17:43:00,
2013-07-17 11:52:00,76.0,47.0,29.81,SE,129,3.0,-999.0,36,-99.99,,,-99.99,,2013-07-17 17:52:00,
2013-07-17 12:01:00,77.0,46.0,29.83,South,185,2.0,-999.0,34,-99.99,,,-99.99,,2013-07-17 18:01:00,
2013-07-17 12:11:00,79.0,46.0,29.83,ESE,107,3.0,-999.0,31,-99.99,,,-99.99,,2013-07-17 18:11:00,
2013-07-17 12:22:00,79.0,46.0,29.83,ESE,107,3.0,-999.0,31,-99.99,,,-99.99,,2013-07-17 18:22:00,
2013-07-17 12:32:00,79.0,45.0,29.82,East,98,3.0,-999.0,30,-99.99,,,-99.99,,2013-07-17 18:32:00,
2013-07-17 12:43:00,80.0,46.0,29.81,ENE,72,2.0,-999.0,30,-99.99,,,-99.99,,2013-07-17 18:43:00,
2013-07-17 12:52:00,80.0,46.0,29.81,ENE,72,2.0,-999.0,30,-99.99,,,-99.99,,2013-07-17 18:52:00,
2013-07-17 13:01:00,79.0,46.0,29.80,ESE,115,4.0,-999.0,31,-99.99,,,-99.99,,2013-07-17 19:01:00,
2013-07-17 13:11:00,81.0,47.0,29.80,SE,139,4.0,-999.0,30,-99.99,,,-99.99,,2013-07-17 19:11:00,
2013-07-17 13:22:00,81.0,47.0,29.80,SE,139,4.0,-999.0,30,-99.99,,,-99.99,,2013-07-17 19:22:00,
2013-07-17 13:32:00,81.0,47.0,29.79,ENE,68,3.0,-999.0,30,-99.99,,,-99.99,,2013-07-17 19:32:00,
2013-07-17 13:43:00,82.0,47.0,29.78,East,79,3.0,-999.0,29,-99.99,,,-99.99,,2013-07-17 19:43:00,
2013-07-17 13:53:00,82.0,47.0,29.78,East,79,3.0,-999.0,29,-99.99,,,-99.99,,2013-07-17 19:53:00,
2013-07-17 14:01:00,81.0,45.0,29.77,SSW,193,3.0,-999.0,28,-99.99,,,-99.99,,2013-07-17 20:01:00,
2013-07-17 14:11:00,83.0,47.0,29.77,SE,145,1.0,-999.0,28,-99.99,,,-99.99,,2013-07-17 20:11:00,
2013-07-17 14:22:00,83.0,47.0,29.77,SE,145,1.0,-999.0,28,-99.99,,,-99.99,,2013-07-17 20:22:00,
2013-07-17 14:33:00,83.0,46.0,29.75,ENE,64,3.0,-999.0,27,-99.99,,,-99.99,,2013-07-17 20:33:00,
2013-07-17 14:43:00,83.0,47.0,29.75,SE,126,3.0,-999.0,28,-99.99,,,-99.99,,2013-07-17 20:43:00,
2013-07-17 14:52:00,83.0,47.0,29.75,SE,126,3.0,-999.0,28,-99.99,,,-99.99,,2013-07-17 20:52:00,
2013-07-17 15:01:00,83.0,47.0,29.76,ESE,117,2.0,-999.0,28,-99.99,,,-99.99,,2013-07-17 21:01:00,
2013-07-17 15:12:00,83.0,47.0,29.76,ESE,117,2.0,-999.0,28,-99.99,,,-99.99,,2013-07-17 21:12:00,
2013-07-17 15:22:00,84.0,45.0,29.75,NNW,328,2.0,-999.0,26,-99.99,,,-99.99,,2013-07-17 21:22:00,
2013-07-17 15:32:00,85.0,46.0,29.73,East,79,3.0,-999.0,26,-99.99,,,-99.99,,2013-07-17 21:32:00,
2013-07-17 15:42:00,84.0,45.0,29.73,South,177,2.0,-999.0,26,-99.99,,,-99.99,,2013-07-17 21:42:00,
2013-07-17 15:52:00,84.0,45.0,29.73,South,177,2.0,-999.0,26,-99.99,,,-99.99,,2013-07-17 21:52:00,
2013-07-17 16:01:00,84.0,45.0,29.73,South,177,2.0,-999.0,26,-99.99,,,-99.99,,2013-07-17 22:01:00,
2013-07-17 16:11:00,84.0,45.0,29.74,SSE,168,2.0,-999.0,26,-99.99,,,-99.99,,2013-07-17 22:11:00,
2013-07-17 16:21:00,84.0,45.0,29.74,SSE,168,2.0,-999.0,26,-99.99,,,-99.99,,2013-07-17 22:21:00,
2013-07-17 16:32:00,84.0,44.0,29.72,WSW,243,2.0,-999.0,25,-99.99,,,-99.99,,2013-07-17 22:32:00,
2013-07-17 16:43:00,84.0,44.0,29.72,WSW,243,2.0,-999.0,25,-99.99,,,-99.99,,2013-07-17 22:43:00,
2013-07-17 16:53:00,85.0,44.0,29.72,NNE,15,2.0,-999.0,24,-99.99,,,-99.99,,2013-07-17 22:53:00,
2013-07-17 17:01:00,84.0,43.0,29.71,SSE,163,2.0,-999.0,24,-99.99,,,-99.99,,2013-07-17 23:01:00,
2013-07-17 17:11:00,84.0,43.0,29.71,SSE,163,2.0,-999.0,24,-99.99,,,-99.99,,2013-07-17 23:11:00,
2013-07-17 17:22:00,86.0,44.0,29.71,NE,48,2.0,-999.0,23,-99.99,,,-99.99,,2013-07-17 23:22:00,
2013-07-17 17:32:00,86.0,44.0,29.69,East,96,3.0,-999.0,23,-99.99,,,-99.99,,2013-07-17 23:32:00,
2013-07-17 17:42:00,86.0,44.0,29.69,East,96,3.0,-999.0,23,-99.99,,,-99.99,,2013-07-17 23:42:00,
2013-07-17 17:52:00,85.0,42.0,29.68,SE,144,3.0,-999.0,22,-99.99,,,-99.99,,2013-07-17 23:52:00,
2013-07-17 18:01:00,86.0,43.0,29.67,SSE,162,1.0,-999.0,22,-99.99,,,-99.99,,2013-07-18 00:01:00,
2013-07-17 18:11:00,86.0,43.0,29.67,SSE,162,1.0,-999.0,22,-99.99,,,-99.99,,2013-07-18 00:11:00,
2013-07-17 18:22:00,86.0,43.0,29.67,SW,221,3.0,-999.0,22,-99.99,,,-99.99,,2013-07-18 00:22:00,
2013-07-17 18:33:00,86.0,43.0,29.67,ESE,116,1.0,-999.0,22,-99.99,,,-99.99,,2013-07-18 00:33:00,
2013-07-17 18:43:00,86.0,43.0,29.67,ESE,116,1.0,-999.0,22,-99.99,,,-99.99,,2013-07-18 00:43:00,
2013-07-17 18:52:00,85.0,42.0,29.65,South,176,0.0,-999.0,22,-99.99,,,-99.99,,2013-07-18 00:52:00,
2013-07-17 19:01:00,84.0,42.0,29.66,SSE,159,1.0,-999.0,23,-99.99,,,-99.99,,2013-07-18 01:01:00,
2013-07-17 19:11:00,84.0,42.0,29.66,SSE,159,1.0,-999.0,23,-99.99,,,-99.99,,2013-07-18 01:11:00,
2013-07-17 19:22:00,83.0,41.0,29.66,SSW,193,1.0,-999.0,23,-99.99,,,-99.99,,2013-07-18 01:22:00,
2013-07-17 19:32:00,83.0,41.0,29.66,SSW,193,0.0,-999.0,23,-99.99,,,-99.99,,2013-07-18 01:32:00,
2013-07-17 19:42:00,83.0,41.0,29.66,SSW,193,0.0,-999.0,23,-99.99,,,-99.99,,2013-07-18 01:42:00,
2013-07-17 19:53:00,82.0,43.0,29.68,SSW,193,0.0,-999.0,25,-99.99,,,-99.99,,2013-07-18 01:53:00,
2013-07-17 20:01:00,82.0,42.0,29.67,SSW,197,1.0,-999.0,24,-99.99,,,-99.99,,2013-07-18 02:01:00,
2013-07-17 20:11:00,82.0,42.0,29.67,SSW,197,1.0,-999.0,24,-99.99,,,-99.99,,2013-07-18 02:11:00,
2013-07-17 20:22:00,81.0,42.0,29.67,SSW,197,0.0,-999.0,25,-99.99,,,-99.99,,2013-07-18 02:22:00,
2013-07-17 20:32:00,81.0,42.0,29.67,SW,220,3.0,-999.0,25,-99.99,,,-99.99,,2013-07-18 02:32:00,
2013-07-17 20:42:00,81.0,42.0,29.67,SW,220,3.0,-999.0,25,-99.99,,,-99.99,,2013-07-18 02:42:00,
2013-07-17 20:52:00,81.0,43.0,29.68,SW,225,2.0,-999.0,26,-99.99,,,-99.99,,2013-07-18 02:52:00,
2013-07-17 21:01:00,79.0,50.0,29.68,NE,35,3.0,-999.0,36,-99.99,,,-99.99,,2013-07-18 03:01:00,
2013-07-17 21:11:00,79.0,50.0,29.68,NE,35,3.0,-999.0,36,-99.99,,,-99.99,,2013-07-18 03:11:00,
2013-07-17 21:22:00,77.0,50.0,29.68,North,1,3.0,-999.0,39,-99.99,,,-99.99,,2013-07-18 03:22:00,
2013-07-17 21:32:00,76.0,51.0,29.70,North,8,1.0,-999.0,42,-99.99,,,-99.99,,2013-07-18 03:32:00,
2013-07-17 21:43:00,76.0,51.0,29.70,North,8,1.0,-999.0,42,-99.99,,,-99.99,,2013-07-18 03:43:00,
2013-07-17 21:52:00,76.0,51.0,29.72,North,8,0.0,-999.0,42,-99.99,,,-99.99,,2013-07-18 03:52:00,
2013-07-17 22:02:00,76.0,49.0,29.72,North,8,1.0,-999.0,38,-99.99,,,-99.99,,2013-07-18 04:02:00,
2013-07-17 22:12:00,76.0,49.0,29.72,North,8,1.0,-999.0,38,-99.99,,,-99.99,,2013-07-18 04:12:00,
2013-07-17 22:22:00,76.0,43.0,29.72,SSE,160,2.0,-999.0,31,-99.99,,,-99.99,,2013-07-18 04:22:00,
2013-07-17 22:32:00,75.0,42.0,29.74,SE,128,2.0,-999.0,31,-99.99,,,-99.99,,2013-07-18 04:32:00,
2013-07-17 22:43:00,75.0,42.0,29.74,SE,128,2.0,-999.0,31,-99.99,,,-99.99,,2013-07-18 04:43:00,
2013-07-17 22:52:00,75.0,42.0,29.75,SSE,158,4.0,-999.0,31,-99.99,,,-99.99,,2013-07-18 04:52:00,
2013-07-17 23:02:00,74.0,42.0,29.73,SE,137,4.0,-999.0,32,-99.99,,,-99.99,,2013-07-18 05:02:00,
2013-07-17 23:11:00,74.0,42.0,29.73,SE,137,4.0,-999.0,32,-99.99,,,-99.99,,2013-07-18 05:11:00,
2013-07-17 23:22:00,74.0,43.0,29.73,ESE,110,4.0,-999.0,33,-99.99,,,-99.99,,2013-07-18 05:22:00,
2013-07-17 23:32:00,73.0,44.0,29.75,ESE,109,2.0,-999.0,35,-99.99,,,-99.99,,2013-07-18 05:32:00,
2013-07-17 23:42:00,73.0,44.0,29.75,ESE,109,2.0,-999.0,35,-99.99,,,-99.99,,2013-07-18 05:42:00,
2013-07-17 23:52:00,73.0,44.0,29.75,SE,127,4.0,-999.0,35,-99.99,,,-99.99,,2013-07-18 05:52:00,